User: anonymous   Login
Location: Caltech
(34.1382°N, 118.1253°W)
Time: 21:46:18
(UTC-07:00)
Language:

TMSAT-1 - Orbit

View from above orbital plane
View from above orbital plane
View from above satellite
View from above satellite

Ground track
Ground track

The orbit data is extracted from the following two-line orbital elements,

1 25396U 98043C   16208.86098268  .00000013  00000-0  24176-4 0  9991
2 25396  98.5416 155.0012 0002515 167.8379 192.2861 14.24400989937850
Epoch (UTC): 26 July 2016 20:39:48
Eccentricity: 0.0002515
inclination: 98.5416°
perigee height: 809 km
apogee height: 812 km
right ascension of ascending node: 155.0012°
argument of perigee: 167.8379°
revolutions per day: 14.24400989
mean anomaly at epoch: 192.2861°
orbit number at epoch: 93785

The dashed part of the orbit path shows where the satellite is in the earth's shadow,  

DLR